Location: Beddau
(51.5575°N, 3.3561°W)
Time: 01:59:28
(UTC+00:00)

USA 308 - Pass Details

Date: 03 March 2021
Orbit: 568 x 576 km, 54.0° (Epoch: 13 April)

Event Time Altitude Azimuth Distance (km) Brightness Sun altitude
Rises 18:24:41 0° 256° (WSW) 2,775 8.7 -5.0°
Reaches altitude 10° 18:26:57 10° 258° (WSW) 1,877 7.4 -5.4°
Maximum altitude 18:31:13 76° 345° (NNW) 594 3.0 -6.0°
Drops below altitude 10° 18:35:29 10° 72° (ENE) 1,876 4.9 -6.7°
Enters shadow 18:35:58 - 72° (ENE) 2,066 5.1 -6.8°
